Date,TemperatureHighF,TemperatureAvgF,TemperatureLowF,DewpointHighF,DewpointAvgF,DewpointLowF,HumidityHigh,HumidityAvg,HumidityLow,PressureMaxIn,PressureMinIn,WindSpeedMaxMPH,WindSpeedAvgMPH,GustSpeedMaxMPH,PrecipitationSumIn
2013-1-1,41.7,29.0,13.6,24.0,12.5,-2.1,70,51,34,29.88,29.62,11,2,14,0.04
2013-1-2,35.4,15.9,4.5,15.2,0.1,-10.9,59,49,42,30.06,29.82,10,1,10,0.00
2013-1-3,28.0,10.9,1.8,4.1,-10.8,-20.4,48,39,12,30.09,29.91,8,1,8,0.00
2013-1-4,12.0,10.7,9.9,-5.2,-6.4,-7.2,45,45,45,29.94,29.85,2,0,2,0.00
2013-1-6,46.9,35.8,0.0,27.3,23.0,0.0,76,60,45,29.65,29.56,5,0,5,0.00
2013-1-7,42.6,29.2,18.5,27.9,16.4,6.3,86,61,40,30.06,29.59,9,1,9,0.00
2013-1-8,48.7,31.0,19.0,28.3,20.1,11.6,90,66,41,30.03,29.88,6,1,6,0.00
2013-1-9,42.1,33.0,20.5,32.1,23.4,15.9,83,68,50,30.06,29.62,4,1,6,0.00
2013-1-10,49.5,38.7,29.3,25.6,21.7,0.0,100,51,38,30.21,29.62,11,2,19,0.00
2013-1-11,39.6,32.2,23.7,34.1,24.0,17.6,95,72,52,30.18,29.88,4,0,4,0.12
2013-1-12,41.2,37.9,35.4,40.4,37.3,34.1,98,98,95,29.91,29.76,2,0,115,0.05
2013-1-13,47.1,43.0,38.1,46.6,42.4,37.6,98,98,98,29.82,29.65,3,1,3,0.00
2013-1-14,65.8,48.3,37.6,55.2,39.0,22.0,98,74,42,29.94,29.56,10,1,229,0.00
2013-1-15,45.9,35.3,29.1,27.3,20.8,16.9,73,56,43,29.97,29.88,6,1,6,0.00
2013-1-16,33.1,30.8,28.0,31.3,27.3,19.9,97,87,64,29.94,29.47,3,0,3,0.00
2013-1-17,45.9,31.3,24.6,37.7,23.0,6.0,98,74,42,29.79,29.47,8,1,8,0.29
2013-1-18,75.2,32.7,11.3,44.9,-1.6,-24.1,45,25,3,30.12,29.71,9,1,9,0.46
2013-1-19,47.5,34.0,17.1,25.4,15.6,-0.6,67,47,38,30.03,29.50,8,2,12,0.00
2013-1-20,57.0,39.5,35.4,31.7,28.2,25.9,74,65,38,29.50,29.14,10,2,10,0.00
2013-2-23,32.5,32.5,32.5,31.5,31.2,30.5,96,95,92,29.68,29.59,1,0,1,0.00
2013-2-24,34.5,32.5,29.5,33.7,31.8,29.0,98,97,92,29.62,29.38,4,1,5,0.17
2013-2-25,49.5,34.1,27.9,35.6,30.0,26.6,98,86,52,29.91,29.53,2,0,2,0.37
2013-2-26,49.3,35.2,27.7,37.1,28.4,23.5,98,78,48,30.03,29.82,4,1,4,0.25
2013-2-27,39.6,35.3,32.7,38.9,33.8,27.5,98,94,77,29.88,29.23,11,3,11,0.20
2013-2-28,55.2,39.2,32.2,38.7,33.2,30.2,98,81,47,29.32,29.17,6,1,6,1.83
2013-3-1,39.7,35.9,31.6,34.8,28.2,24.0,95,74,57,29.38,29.20,6,1,6,1.83
2013-3-2,49.5,36.7,28.9,30.5,24.2,21.0,79,61,46,29.35,29.29,7,1,7,1.66
2013-3-3,45.7,34.7,29.3,30.9,25.4,21.4,82,69,55,29.32,29.23,10,1,10,1.29
2013-3-4,45.3,33.2,28.0,26.0,20.9,18.2,81,61,43,29.41,29.23,12,3,12,1.04
2013-3-5,55.0,36.5,27.9,32.4,24.1,17.2,92,62,37,29.74,29.41,12,2,12,0.00
2013-3-6,37.0,34.5,30.9,35.3,32.1,24.2,98,91,61,29.82,29.71,13,3,13,0.12
2013-3-7,36.0,31.6,29.7,30.7,28.2,24.0,98,87,73,29.79,29.32,9,2,9,0.08
2013-3-8,41.7,34.2,28.6,32.5,25.1,16.9,98,74,43,29.85,29.65,8,2,8,0.05
2013-3-9,126.3,39.3,22.7,49.4,17.6,-26.6,86,47,4,30.03,29.82,8,1,8,0.28
2013-3-10,55.4,37.3,25.7,30.9,27.1,22.9,91,69,39,30.09,29.94,4,1,6,0.00
2013-3-11,57.9,43.4,30.6,38.0,31.9,28.5,93,67,39,30.00,29.74,6,1,6,0.00
2013-3-12,53.4,46.6,39.4,51.3,45.4,37.7,98,96,84,29.82,29.38,6,2,6,0.34
2013-3-13,61.0,44.2,30.6,50.4,30.2,14.4,98,63,35,29.47,29.35,10,2,10,0.00
2013-3-14,30.4,28.9,28.0,16.8,16.0,14.7,61,58,52,29.47,29.41,1,0,1,0.00
2013-3-15,48.4,29.4,17.1,26.0,7.1,-12.4,77,44,8,29.53,29.26,14,2,14,0.00
2013-3-16,41.9,32.1,25.2,24.7,11.6,6.1,75,43,26,29.56,29.32,9,1,9,0.00
2013-3-17,45.3,29.1,19.4,15.3,-1.1,-18.2,61,32,9,30.00,29.53,12,2,12,0.00
2013-3-18,46.6,28.5,12.6,19.2,-2.7,-15.0,64,30,8,30.12,29.91,6,1,6,0.00
2013-3-19,34.5,30.7,27.1,33.1,29.1,19.7,98,94,66,29.91,29.41,8,2,8,0.00
2013-3-20,47.3,30.7,23.5,29.2,22.7,18.5,94,75,43,29.38,29.35,6,1,6,0.12
2013-3-24,57.2,45.0,32.2,29.0,22.1,17.9,64,41,31,29.47,29.35,9,2,9,0.41
2013-3-25,52.2,37.1,28.0,32.3,25.3,19.2,72,62,48,29.47,29.17,10,2,10,0.41
2013-3-26,60.1,42.1,32.7,25.6,17.3,-10.7,70,42,6,29.47,29.20,11,2,11,0.41
2013-3-27,62.8,41.4,27.0,31.9,20.7,14.9,78,46,24,29.56,29.38,12,2,12,0.41
2013-3-28,52.3,42.1,34.3,34.3,30.0,24.6,95,65,41,29.68,29.53,6,1,6,0.00
2013-3-29,64.8,42.4,34.9,37.5,27.5,24.6,75,57,34,29.74,29.44,8,1,8,0.00
2013-3-30,65.8,46.5,34.0,30.9,11.2,-12.5,73,35,4,29.76,29.65,10,1,10,0.00
2013-3-31,66.6,45.4,25.5,37.1,14.0,-12.5,80,39,4,29.82,29.41,8,2,8,0.00
2013-4-1,66.7,48.0,37.8,44.7,37.9,16.4,98,72,40,29.44,29.14,11,2,11,0.37
2013-4-2,45.9,34.4,25.9,15.6,7.2,-11.9,46,33,10,29.56,29.44,12,2,12,0.00
2013-4-3,53.4,39.8,27.1,15.1,-1.6,-14.2,45,22,7,29.79,29.56,15,3,15,0.00
2013-4-4,63.1,41.4,26.2,19.5,5.1,-11.2,47,29,5,29.94,29.65,10,2,10,0.00
2013-4-5,68.5,48.8,36.3,30.0,15.3,-12.5,63,35,4,29.68,29.26,13,2,13,0.00
2013-4-6,51.8,40.4,27.9,9.0,-8.3,-16.3,38,14,7,29.91,29.50,13,2,13,0.00
2013-4-7,61.7,37.3,24.8,37.0,15.6,4.3,73,42,15,29.82,29.09,8,2,10,0.00
2013-4-8,71.2,54.6,42.1,39.0,33.4,26.3,85,49,25,29.26,28.97,6,2,6,0.00
2013-4-9,73.0,55.1,43.7,50.4,40.8,34.9,90,61,37,29.14,28.44,8,2,9,0.00
2013-4-10,64.8,51.9,45.3,49.4,45.2,39.4,98,79,55,28.61,26.66,6,1,6,0.50
2013-4-11,48.0,43.2,39.0,47.5,36.5,23.5,98,79,49,29.85,24.45,3,0,3,0.12
2013-4-12,39.9,36.0,34.3,35.6,32.5,22.3,98,88,50,29.88,29.50,9,3,9,0.41
2013-4-13,43.9,35.3,33.3,36.5,34.2,32.8,98,96,75,29.59,29.44,7,1,7,0.09
2013-4-14,60.3,50.6,36.5,38.4,29.8,23.4,75,45,36,29.91,29.62,11,2,11,0.00
2013-4-15,65.1,46.3,32.2,35.3,30.7,26.3,82,57,31,30.06,29.88,7,1,7,0.00
2013-4-16,70.7,52.7,36.7,51.4,40.3,32.8,94,66,36,30.06,29.71,12,2,12,0.00
2013-4-17,72.7,59.0,48.2,52.4,30.7,-14.4,83,42,3,30.03,29.71,12,2,12,0.00
2013-4-18,67.5,51.5,38.3,40.5,29.8,22.4,66,45,26,30.12,29.85,8,2,8,0.00
2013-4-19,77.4,63.1,51.4,62.7,54.9,40.1,98,76,46,29.85,29.32,8,3,8,0.00
2013-4-20,67.1,53.6,41.2,63.3,39.3,18.7,97,63,35,29.88,29.29,10,2,10,0.33
2013-4-21,60.8,43.8,29.7,24.4,12.6,-10.8,66,34,6,30.41,29.88,9,2,9,0.00
2013-4-22,58.6,42.7,32.0,31.3,26.1,20.2,80,55,25,30.44,30.27,10,2,10,0.00
2013-4-23,40.6,38.0,34.3,39.9,35.6,27.9,98,91,76,30.27,28.58,8,2,229,0.00
2013-4-24,41.5,40.8,40.1,41.0,40.3,39.6,98,98,98,29.82,29.65,6,2,6,0.00
2013-4-25,72.3,57.3,47.3,51.6,31.1,-7.8,94,45,6,29.94,29.47,8,2,8,0.00
2013-4-26,47.3,47.3,47.3,0.0,0.0,0.0,49,49,49,29.88,28.38,4,2,4,0.00
2013-4-27,68.9,60.2,44.1,38.0,32.8,26.8,57,36,29,30.03,28.38,6,2,6,0.00
2013-4-28,78.6,55.6,37.0,41.6,33.7,21.7,84,48,15,30.06,29.91,8,1,8,0.00
2013-4-29,78.4,58.3,43.2,47.3,34.8,25.3,72,43,31,29.97,29.85,8,1,8,0.00
2013-4-30,80.2,59.5,43.9,35.9,8.3,-20.0,58,24,2,30.06,29.94,6,1,6,0.00
2013-5-1,82.0,58.7,36.9,41.3,19.0,-20.0,76,35,2,30.18,30.06,7,1,7,0.00
2013-5-2,89.4,58.5,41.0,47.4,33.8,-12.8,76,48,2,30.18,30.03,12,2,12,0.00
2013-5-3,70.2,52.4,40.8,43.5,38.4,34.8,90,62,37,30.24,30.06,8,2,8,0.00
2013-5-4,70.7,51.4,38.7,45.0,36.5,26.8,92,61,23,30.06,29.97,57,1,57,0.00
2013-5-5,73.4,51.0,34.3,42.3,35.9,31.6,94,61,32,30.03,29.94,6,1,6,0.00
2013-5-6,80.4,54.8,35.4,46.5,40.6,32.3,95,65,21,30.00,29.82,6,1,6,0.00
2013-5-7,88.9,53.1,41.5,55.6,45.1,39.7,95,80,23,29.88,29.76,9,0,9,0.00
2013-5-8,80.1,63.7,52.7,62.0,57.0,51.0,97,81,46,29.94,29.76,9,1,9,0.00
2013-5-9,70.2,58.9,55.0,65.3,57.5,54.5,98,95,76,29.79,29.59,4,1,4,0.58
2013-5-10,88.5,66.9,55.2,63.6,56.1,52.8,98,73,34,29.68,29.59,6,1,6,0.00
2013-5-11,68.7,62.5,57.7,63.2,59.3,54.8,98,90,76,29.65,29.41,8,1,8,0.13
2013-5-12,78.3,60.7,45.3,60.4,49.6,26.6,98,71,38,29.68,29.26,9,1,9,0.08
2013-5-13,66.7,50.0,40.1,36.0,28.2,22.8,63,44,26,29.71,29.47,10,1,10,0.08
2013-5-14,67.5,49.9,36.9,35.2,28.7,23.1,76,47,25,29.76,29.65,10,1,10,0.08
2013-5-15,75.0,47.3,34.0,51.3,34.0,25.4,91,64,21,29.76,29.35,6,1,6,0.04
2013-5-16,88.3,66.0,45.7,54.1,35.1,-16.5,97,49,2,29.50,29.29,12,2,12,0.00
2013-5-17,75.0,59.1,48.4,43.7,37.9,32.0,70,47,30,29.94,29.50,10,2,229,0.00
2013-5-18,81.9,59.1,41.4,48.2,42.3,35.1,91,59,22,30.00,29.88,6,1,6,0.00
2013-5-19,77.9,57.6,50.0,53.6,50.0,47.5,96,78,43,30.06,29.91,5,0,5,0.21
2013-5-20,87.6,67.4,54.3,65.8,59.6,53.2,98,79,43,29.91,29.65,6,0,6,0.04
2013-5-21,77.0,59.0,49.3,67.6,56.0,48.5,98,90,62,29.76,29.59,7,1,7,0.04
2013-5-22,61.2,54.2,49.3,58.6,52.7,48.7,98,95,86,29.79,29.59,5,0,5,1.66
2013-5-23,77.5,61.5,51.6,73.2,60.0,51.1,98,95,79,29.65,29.50,6,1,6,0.50
2013-5-24,74.7,62.5,48.6,69.6,59.8,47.9,98,91,70,29.59,29.35,115,1,115,1.24
2013-5-25,53.2,47.4,38.7,51.4,46.2,36.3,98,96,86,29.56,29.41,57,2,57,0.42
2013-5-26,65.7,47.7,37.9,43.5,37.7,34.2,98,72,44,29.79,29.35,11,2,11,0.12
2013-5-27,79.0,56.9,37.6,45.4,37.1,20.7,96,56,18,29.91,29.76,8,1,8,0.00
2013-5-28,81.0,60.1,41.0,47.9,42.2,37.0,89,57,25,29.97,29.88,5,0,5,0.00
2013-5-29,67.6,60.1,51.6,63.8,57.8,47.0,98,92,84,29.91,29.71,0,0,0,0.46
2013-5-30,60.3,59.4,58.6,59.7,58.8,58.1,98,98,98,29.74,29.71,0,0,0,0.00
2013-6-6,63.7,60.5,57.6,52.1,49.1,47.0,82,66,56,29.88,29.82,3,0,3,0.00
2013-6-7,57.6,54.1,51.4,55.0,52.9,50.9,98,96,82,29.85,29.56,6,1,6,1.41
2013-6-8,83.3,63.4,51.6,65.5,56.9,51.1,98,82,50,29.74,29.35,9,1,9,0.83
2013-6-9,86.7,69.1,54.5,62.2,55.4,49.4,98,68,33,29.85,29.74,8,1,8,0.00
2013-6-11,71.8,71.8,71.8,52.2,52.2,52.2,50,50,50,29.85,29.85,0,0,0,0.00
2013-6-12,73.6,64.6,0.0,59.3,54.3,0.0,98,70,50,29.56,29.29,16,2,16,0.00
2013-6-13,70.9,59.0,51.3,60.5,54.9,49.9,98,87,59,29.56,29.29,57,0,57,0.25
2013-6-14,80.8,62.9,52.7,60.9,54.3,49.9,98,77,41,29.50,29.38,5,0,5,0.50
2013-6-15,85.8,62.6,54.5,53.4,50.0,40.7,86,68,23,29.68,29.47,5,1,6,0.00
2013-6-16,84.6,66.1,52.2,58.7,53.7,48.0,90,67,39,29.65,29.41,6,0,6,0.00
2013-6-17,94.3,69.6,56.3,65.5,59.2,50.2,96,75,32,29.65,29.47,9,1,9,0.04
2013-6-18,77.5,61.8,56.8,65.3,59.2,56.3,98,92,57,29.71,29.59,4,0,4,0.33
2013-6-19,84.2,65.9,54.0,57.9,51.7,42.6,98,66,30,29.85,29.65,5,0,5,0.05
2013-6-20,88.2,67.3,48.7,55.3,50.0,44.6,93,60,29,29.97,29.82,4,0,4,0.00
2013-6-21,92.8,72.1,55.6,64.1,55.9,48.8,94,63,28,29.97,29.88,6,1,6,0.00
2013-6-22,91.9,73.4,59.9,68.7,61.4,55.6,96,69,39,29.94,29.82,6,0,6,0.00
2013-6-23,88.7,69.1,63.0,70.5,63.3,60.7,93,83,52,29.88,29.82,3,0,3,0.00
2013-6-24,101.3,81.3,68.9,74.7,68.2,62.6,94,69,32,29.76,29.59,10,1,10,0.00
2013-6-25,99.3,73.6,66.9,74.2,67.5,64.8,96,85,41,29.71,29.47,7,0,7,0.08
2013-6-26,89.6,74.3,62.4,74.9,69.6,61.7,98,87,50,29.62,29.47,4,0,4,0.83
2013-6-27,71.1,63.9,59.7,67.3,62.6,59.2,98,95,87,29.68,29.53,3,0,3,0.83
2013-6-28,82.2,67.0,56.3,77.2,65.0,55.8,98,94,78,29.53,29.23,4,0,4,0.83
2013-6-29,90.9,76.0,69.1,74.4,68.7,63.7,97,80,47,29.47,29.26,8,0,8,0.83
2013-6-30,94.5,77.5,65.8,74.6,69.1,65.0,98,78,45,29.68,29.47,3,0,4,0.83
2013-7-1,84.2,73.1,69.4,75.2,70.5,67.8,98,92,72,29.82,29.68,5,0,5,1.20
2013-7-2,86.4,68.6,59.5,80.8,67.3,59.0,98,96,73,30.00,29.82,5,0,5,0.04
2013-7-3,94.3,73.6,59.5,77.8,68.1,59.0,98,85,53,30.00,29.85,6,0,6,0.00
2013-7-4,101.7,83.0,70.3,78.4,72.6,69.2,97,75,41,29.94,29.82,6,0,6,4.60
2013-7-5,101.8,84.7,72.3,79.6,73.1,70.0,96,72,40,29.91,29.76,6,0,6,4.60
2013-7-6,96.1,81.9,70.9,76.2,69.9,63.8,95,70,41,29.82,29.71,12,1,12,0.00
2013-7-7,97.9,79.5,66.6,76.3,68.6,62.5,93,72,36,29.76,29.65,6,0,6,0.00
2013-7-8,87.6,74.3,64.6,77.0,69.8,63.7,97,87,64,29.85,29.65,4,0,4,0.54
2013-7-9,72.7,67.7,63.7,69.1,65.4,62.8,98,92,85,29.85,29.82,3,0,3,0.04
2013-7-10,88.0,67.5,64.2,77.4,65.9,63.2,98,95,67,29.82,29.53,4,0,4,0.34
2013-7-11,73.2,72.6,72.0,72.3,71.7,70.9,97,97,97,29.56,29.53,172,4,229,0.00
2013-7-12,86.9,69.0,63.9,69.6,62.5,53.0,98,83,37,29.94,29.68,6,1,6,0.00
2013-7-13,88.2,72.5,63.3,70.0,63.9,58.8,95,76,50,30.06,29.94,4,0,4,0.00
2013-7-14,98.2,79.4,66.6,75.2,70.4,65.1,97,78,40,30.06,29.94,6,0,6,0.00
2013-7-15,97.9,81.5,68.9,76.2,70.4,66.7,97,73,40,29.94,29.82,4,1,5,0.00
2013-7-16,74.3,74.0,73.8,66.8,66.3,65.9,78,77,76,29.85,29.82,1,0,1,0.00
2013-8-5,80.8,64.4,52.5,54.9,46.7,36.3,94,58,27,29.80,29.59,8,1,9,0.00
2013-8-6,88.3,65.7,49.1,59.7,49.8,43.3,93,62,29,29.88,29.76,3,0,4,0.00
2013-8-7,90.0,68.9,53.8,64.9,55.7,51.6,96,68,30,29.91,29.82,3,0,4,0.00
2013-8-8,88.7,73.0,62.6,73.7,65.6,55.5,93,78,57,29.85,29.71,6,0,6,0.00
2013-8-9,73.2,71.0,69.3,72.6,69.8,68.2,98,96,91,29.74,29.47,3,0,4,1.62
2013-8-10,90.0,72.6,60.8,72.3,59.6,46.8,98,69,31,29.74,29.50,8,1,230,0.00
2013-8-11,87.4,67.2,52.7,60.5,54.2,49.8,95,68,31,29.80,29.71,6,0,7,0.00
2013-8-12,90.0,67.4,56.7,61.6,57.1,52.5,97,75,31,29.76,29.62,6,0,6,0.00
2013-8-13,75.4,67.5,63.0,69.8,64.5,60.5,97,90,76,29.65,29.41,2,0,2,0.00
2013-8-14,81.5,66.8,56.3,63.2,54.2,47.9,98,68,36,29.68,29.38,10,1,11,0.00
2013-8-15,56.3,53.4,51.6,50.0,49.1,48.2,92,85,78,29.74,29.65,1,0,1,0.00
2013-8-16,87.6,66.8,51.6,58.8,53.4,50.0,95,68,33,29.94,29.82,4,1,4,0.00
2013-8-17,91.6,68.8,54.7,65.8,58.0,53.3,96,73,37,30.03,29.88,4,0,4,0.00
2013-8-18,89.2,69.3,56.7,68.0,60.2,55.2,96,76,40,30.00,29.79,3,0,3,0.00
2013-8-19,88.7,71.1,58.5,65.0,60.4,56.4,97,73,40,29.79,29.65,6,0,6,0.00
2013-8-20,93.6,73.9,34.2,67.2,62.3,0.0,95,72,35,29.82,29.71,5,0,5,0.00
2013-8-21,97.5,75.8,60.8,69.9,63.6,59.6,98,71,35,29.94,29.76,4,0,4,0.00
2013-8-22,96.6,76.8,62.6,70.4,65.9,61.3,96,73,38,29.79,29.53,4,0,4,0.00
2013-8-23,88.7,73.4,61.3,67.7,57.0,44.6,93,61,31,29.88,29.56,6,1,6,0.00
2013-8-24,86.9,67.2,54.9,53.4,48.6,44.1,80,55,26,30.06,29.88,4,1,4,0.00
2013-8-25,91.6,69.3,52.0,61.1,52.1,46.1,92,60,28,30.09,29.88,5,0,5,0.00
2013-8-26,88.7,72.1,63.0,67.6,62.0,53.6,89,72,43,29.91,29.59,6,0,6,0.00
2013-8-27,92.8,75.3,65.7,71.0,66.0,62.1,95,76,40,29.65,29.53,3,0,3,0.00
2013-8-28,95.4,74.6,61.7,74.8,64.6,60.8,97,75,41,29.74,29.59,4,1,4,0.00
2013-8-29,66.0,64.3,59.2,65.0,61.8,57.3,97,92,84,29.82,29.71,2,0,2,0.00
2013-8-30,91.9,71.1,56.8,69.1,62.3,56.0,98,77,40,29.76,29.53,6,0,6,0.00
2013-8-31,83.3,72.5,66.4,76.9,70.0,64.6,97,92,78,29.59,29.50,3,0,3,0.08
2013-9-1,92.3,76.7,69.3,76.0,71.1,68.4,98,84,49,29.68,29.53,4,0,4,0.04
2013-9-2,78.8,72.5,69.1,76.8,71.3,68.2,98,96,93,29.65,29.47,3,0,3,4.69
2013-9-3,88.5,70.3,59.9,73.6,68.2,58.5,98,94,56,29.56,29.44,5,0,5,4.69
2013-9-4,88.2,68.5,55.6,63.6,56.4,50.1,98,71,33,29.65,29.53,8,0,8,0.00
2013-9-5,78.1,63.0,50.9,60.7,49.7,38.2,95,66,33,29.85,29.56,115,1,115,0.00
2013-9-6,77.5,58.3,43.3,45.2,41.4,38.2,86,58,27,29.94,29.76,6,0,6,0.00
2013-9-7,88.7,64.4,47.3,58.3,50.8,44.0,93,67,30,29.82,29.53,5,0,5,0.00
2013-9-8,77.5,63.4,48.2,59.8,48.7,36.8,82,61,33,29.79,29.44,11,1,11,0.00
2013-9-9,79.0,57.8,42.3,47.8,42.7,38.6,89,61,31,29.94,29.76,6,0,6,0.00
2013-9-10,74.8,64.5,53.6,70.5,61.1,46.9,96,89,73,29.88,29.71,5,0,5,0.08
2013-9-11,101.5,81.1,67.6,82.1,70.6,66.9,98,75,39,29.82,29.65,6,0,6,0.08
2013-9-12,70.3,69.4,68.4,68.7,68.0,67.2,96,95,94,29.74,29.65,1,0,1,0.00
2013-9-13,79.3,66.5,57.6,73.1,63.6,53.4,98,91,69,29.50,29.29,6,0,6,0.21
2013-9-14,75.2,60.1,50.4,57.1,51.8,48.8,95,76,45,29.76,29.47,7,1,7,0.00
2013-9-15,79.3,59.2,46.4,56.1,48.7,44.2,98,74,33,29.88,29.74,4,0,4,0.00
2013-9-16,72.7,56.4,45.1,60.2,49.0,34.5,95,78,51,29.97,29.71,8,1,8,0.00
2013-9-17,71.1,51.9,38.5,42.3,38.1,33.4,86,63,33,30.15,29.94,6,1,6,0.00
2013-9-18,82.2,57.8,40.5,52.7,43.8,39.1,97,66,28,30.06,29.82,5,0,5,0.00
2013-9-19,86.5,62.2,45.9,57.1,50.3,44.5,96,71,31,29.85,29.74,4,0,4,0.00
2013-9-20,87.1,64.5,48.6,63.6,54.1,47.5,98,75,38,29.82,29.71,4,0,4,0.00
2013-9-21,80.8,63.6,51.3,65.4,58.0,50.2,98,84,52,29.76,29.44,6,1,6,0.00
2013-9-22,79.5,65.6,51.4,66.7,57.0,40.9,98,77,41,29.56,29.29,6,1,6,0.50
2013-9-23,68.2,52.5,42.1,43.3,39.5,36.8,86,63,38,29.71,29.53,10,2,10,0.00
2013-9-24,71.1,52.2,38.3,44.7,40.1,36.5,97,68,35,29.71,29.53,10,1,10,0.00
2013-9-25,74.5,55.1,42.8,53.2,46.7,40.8,96,76,41,29.71,29.56,4,0,4,0.00
2013-9-26,76.3,59.0,49.1,51.8,47.8,43.5,91,70,37,29.88,29.71,6,0,6,0.00
2013-9-27,70.7,58.6,50.2,54.6,51.2,48.8,95,78,53,30.00,29.82,4,0,4,0.00
2013-9-28,83.3,59.4,47.5,58.3,50.5,46.7,98,77,38,30.06,29.94,5,0,5,0.00
2013-9-29,77.2,55.3,44.1,57.9,46.9,42.8,98,78,34,30.00,29.82,4,0,4,0.00
2013-9-30,79.9,56.2,44.8,56.1,48.4,42.9,98,79,38,29.85,29.65,4,0,4,0.00
2013-10-1,84.9,53.5,46.0,58.0,48.4,45.0,98,87,32,29.71,29.56,6,0,6,0.00
2013-10-2,86.9,65.3,50.9,63.5,55.5,50.1,98,75,38,29.68,29.53,11,0,11,0.00
2013-10-3,85.8,63.7,51.3,56.0,50.9,43.5,96,69,29,29.82,29.68,4,0,7,0.00
2013-10-4,62.8,57.7,50.4,59.3,54.9,48.5,98,91,78,29.82,29.74,2,0,2,0.03
2013-10-5,69.3,60.5,56.7,58.0,55.4,52.5,98,84,62,29.88,29.76,4,0,4,0.00
2013-10-6,57.7,54.0,50.7,55.8,52.8,49.9,98,96,90,29.97,29.82,3,0,4,0.21
2013-10-7,77.0,64.0,54.7,73.0,61.7,54.1,98,93,70,29.85,29.53,7,1,9,0.25
2013-10-8,72.9,55.9,45.9,57.6,44.0,34.9,98,69,34,30.12,29.62,9,1,9,0.00
2013-10-9,70.5,50.9,40.1,46.8,41.4,37.3,93,73,39,30.21,30.06,5,0,5,0.00
2013-10-10,65.8,49.5,39.2,54.4,44.0,38.2,98,84,50,30.12,29.88,3,0,3,0.00
2013-10-11,76.3,57.2,45.7,54.4,46.2,39.4,98,72,31,29.91,29.82,4,0,4,0.00
2013-10-12,56.7,52.8,48.6,54.5,51.3,47.0,98,95,89,30.12,29.85,5,1,5,0.00
2013-10-13,63.1,47.5,40.5,55.3,45.1,39.1,98,92,54,30.18,30.09,6,0,6,7.01
2013-10-14,72.3,48.9,35.1,55.6,39.9,34.5,98,78,35,30.12,29.94,4,0,4,0.00
2013-10-15,63.0,56.0,51.3,53.0,50.3,47.8,97,82,61,30.00,29.88,4,0,4,0.00
2013-10-16,63.3,55.7,51.8,55.3,51.6,47.3,98,87,57,29.91,29.62,3,0,3,0.00
2013-10-17,82.8,61.2,51.8,63.8,50.7,40.6,98,73,38,29.62,29.41,4,0,4,0.00
2013-10-18,75.7,60.2,47.5,59.9,47.9,33.3,98,67,35,29.62,29.29,8,1,8,0.00
2013-10-19,75.0,54.9,38.5,49.2,39.3,33.3,91,60,33,29.68,29.47,4,0,4,0.00
2013-10-20,68.9,54.1,40.6,45.6,38.6,27.8,93,60,32,29.71,29.38,10,1,10,0.00
2013-10-21,75.9,51.3,35.4,44.3,36.7,30.6,93,61,32,29.79,29.68,6,0,6,0.00
2013-10-22,63.9,51.3,42.8,52.7,44.1,35.5,94,77,55,29.71,29.41,6,0,6,0.00
2013-10-23,57.0,44.4,34.2,40.1,32.7,30.6,93,66,42,29.50,29.26,4,0,4,0.00
2013-10-24,62.4,45.1,34.3,34.1,28.1,20.1,84,54,30,29.59,29.32,10,1,10,0.00
2013-10-25,54.3,39.7,30.7,34.7,25.4,19.1,88,58,38,29.82,29.53,8,1,8,0.00
2013-10-26,60.1,41.8,28.4,37.4,26.4,20.1,89,58,29,29.82,29.56,11,1,11,0.00
2013-10-28,66.2,43.2,30.2,36.9,27.4,17.4,89,57,33,30.03,29.71,8,1,8,0.00
2013-10-29,58.8,37.5,27.3,28.3,16.7,-8.5,71,47,8,30.12,30.00,4,0,5,0.00
2013-10-30,54.7,37.5,28.6,39.3,27.2,16.9,87,67,49,30.06,29.85,3,0,3,0.00
2013-10-31,58.1,42.9,29.8,57.5,40.7,27.5,98,92,85,29.91,29.50,4,0,4,0.13
2013-11-1,68.4,62.7,56.3,62.4,56.8,50.7,98,82,57,29.50,29.12,10,2,10,0.00
2013-11-2,74.5,55.4,42.1,52.0,42.6,35.2,94,67,32,29.44,29.29,5,0,5,0.00
2013-11-3,49.8,41.8,29.3,44.8,33.1,10.6,89,72,38,30.09,29.41,8,1,8,0.00
2013-11-4,50.7,33.8,24.1,21.9,10.8,-9.3,64,41,8,30.41,30.06,6,1,6,0.00
2013-11-5,58.5,37.2,23.5,31.3,23.2,13.7,77,59,35,30.41,30.18,3,0,3,0.00
2013-11-6,67.1,49.2,36.3,46.8,37.5,28.5,83,66,42,30.21,29.71,9,1,9,0.00
2013-11-7,63.0,52.4,38.8,58.0,47.8,30.9,95,85,65,29.71,29.35,7,1,7,0.12
2013-11-8,53.2,37.2,28.0,35.0,26.3,20.3,87,66,43,29.76,29.47,12,1,12,0.04
2013-11-9,46.4,37.5,28.0,23.4,20.6,16.9,67,51,39,29.85,29.71,11,1,11,0.00
2013-11-10,60.4,43.1,37.2,47.5,34.7,22.8,94,73,53,29.74,29.38,9,0,9,0.09
2013-11-11,57.2,48.6,38.8,30.5,25.4,22.0,52,40,33,29.74,29.56,7,1,7,0.04
2013-11-12,46.2,44.6,43.7,28.5,26.6,25.3,50,49,48,29.56,29.53,6,2,6,0.00
2013-11-13,42.3,27.9,21.6,17.0,9.2,5.3,58,46,32,29.94,29.79,10,1,10,0.00
2013-11-14,42.3,30.9,26.6,20.7,14.3,9.6,52,50,41,29.79,29.71,4,1,4,0.00
2013-11-16,66.4,47.1,33.6,24.6,19.5,-12.3,65,38,4,29.97,29.74,3,0,3,0.00
2013-11-17,52.3,42.4,32.0,51.4,39.1,22.4,98,88,65,30.00,29.53,3,0,3,0.00
2013-11-18,70.7,57.5,45.9,60.2,45.8,28.3,98,69,37,29.53,29.17,6,1,8,0.16
2013-11-19,46.9,38.1,29.5,28.3,17.6,0.0,80,44,32,29.97,29.32,13,2,229,0.00
2013-11-20,46.4,32.3,24.4,18.6,10.2,6.2,47,40,25,30.30,29.94,6,1,16,0.00
2013-11-21,51.8,33.7,19.2,22.0,13.6,4.9,66,45,16,30.30,30.00,5,0,5,0.00
2013-11-22,42.4,39.2,35.4,41.2,34.8,21.0,98,85,55,30.03,29.47,3,0,3,0.17
2013-11-23,49.3,36.8,26.2,42.8,24.4,9.2,98,63,39,29.59,29.41,10,2,10,0.00
2013-11-24,29.8,21.8,17.2,16.8,-3.0,-21.6,79,37,14,29.82,29.44,16,3,16,0.00
2013-11-25,35.8,23.2,13.5,8.4,-9.5,-21.9,42,25,11,30.03,29.82,172,2,229,0.00
2013-11-26,30.0,29.0,28.4,11.3,9.7,8.4,45,44,42,29.94,29.88,3,1,3,0.00
2013-11-27,60.6,47.6,33.4,60.1,46.5,29.0,98,96,76,29.74,28.88,12,2,12,1.03
2013-11-28,37.9,31.9,18.1,30.2,19.7,0.5,80,62,30,30.09,29.06,12,2,12,0.00
2013-11-29,34.5,21.0,15.8,11.8,7.2,4.4,66,55,35,30.21,30.09,6,0,6,0.00
2013-11-30,38.7,29.6,23.9,17.3,12.7,6.3,60,49,38,30.44,30.06,115,1,115,0.00
2013-12-1,36.3,33.4,29.5,35.8,28.7,0.0,98,84,60,30.12,29.68,4,0,4,0.17
2013-12-2,38.5,36.5,35.2,38.0,36.0,34.7,98,98,98,29.68,29.59,115,1,115,0.00
2013-12-3,52.0,37.8,29.1,39.8,32.5,25.5,98,83,51,29.62,29.50,4,1,4,0.00
2013-12-4,41.2,32.6,25.9,29.2,24.0,20.4,94,73,50,29.88,29.59,4,0,4,0.00
2013-12-5,41.2,35.9,26.6,40.5,33.1,22.2,98,90,78,29.91,29.59,4,0,4,0.04
2013-12-6,48.6,43.4,32.5,48.0,38.4,28.6,98,83,58,29.85,29.53,8,1,8,0.08
2013-12-7,39.7,31.3,21.4,36.1,24.4,12.7,98,77,51,30.12,29.76,10,1,10,0.09
2013-12-8,30.0,24.0,18.0,20.6,15.2,12.1,87,70,50,30.27,29.85,6,0,6,0.00
2013-12-9,35.8,30.4,24.1,35.0,27.2,12.5,98,89,57,30.18,29.53,4,0,4,0.12
2013-12-10,34.0,29.4,20.8,32.8,26.4,9.4,98,89,55,29.62,29.44,5,0,5,0.00
2013-12-11,37.6,23.9,16.0,16.4,12.4,9.4,82,62,42,29.82,29.62,6,1,6,0.04
2013-12-12,21.6,20.0,17.8,16.6,14.2,10.9,81,78,74,29.85,29.79,5,1,5,0.00
2013-12-13,17.8,13.4,9.1,4.8,0.2,-4.1,57,55,54,30.06,29.85,6,1,6,0.00
2013-12-14,17.6,11.1,5.7,9.5,-3.2,-7.3,82,52,45,30.30,29.85,6,1,6,0.00
2013-12-15,27.5,19.8,13.3,23.3,16.9,8.8,95,88,82,29.85,29.06,11,1,11,0.00
2013-12-16,34.3,20.2,8.8,16.4,6.3,-6.2,86,57,31,29.88,29.35,10,1,10,0.00
2013-12-17,20.7,9.7,-3.1,13.8,-1.6,-17.1,88,61,43,29.94,29.59,115,1,115,0.00
2013-12-18,39.9,24.1,13.5,22.0,14.0,9.3,83,67,43,29.71,29.53,9,1,229,0.04
2013-12-19,45.7,31.4,24.8,24.5,18.5,15.6,72,60,42,29.76,29.59,4,1,4,0.04
2013-12-20,51.3,38.7,29.7,32.8,25.8,19.3,70,60,48,29.79,29.56,4,0,4,0.13
2013-12-21,56.8,42.4,36.5,44.4,33.0,28.2,93,70,51,29.62,29.47,2,1,2,0.00
2013-12-22,46.2,35.7,31.3,45.1,35.1,30.8,98,98,93,29.74,29.32,7,1,7,0.12
2013-12-23,35.2,32.6,30.0,34.7,32.1,29.5,98,98,98,29.79,29.56,4,0,4,0.21
2013-12-24,37.8,31.4,22.8,34.5,21.8,7.3,98,69,44,29.88,29.71,8,1,8,0.21
2013-12-25,25.2,16.6,9.1,7.8,-0.1,-4.5,57,48,35,30.21,29.74,12,1,229,0.00
2013-12-26,29.5,20.6,13.3,25.0,13.4,0.5,89,74,56,30.15,29.71,2,0,2,0.00
2013-12-27,34.0,23.1,14.4,26.6,15.4,10.9,92,73,51,29.91,29.82,6,0,6,0.00
2013-12-28,46.8,28.7,20.1,27.5,20.1,14.5,87,71,44,29.88,29.59,4,1,14,0.00
2013-12-29,39.6,33.7,27.7,34.5,27.9,21.0,98,80,59,29.71,29.12,6,1,6,0.00
2013-12-30,45.3,30.5,12.6,39.2,20.2,-3.0,98,69,41,29.85,29.14,10,2,10,0.00
2013-12-31,34.2,14.6,6.8,5.1,-2.3,-8.3,64,47,33,29.85,29.65,4,0,4,0.00
2014-1-1,31.3,18.6,12.0,10.3,2.7,-0.6,58,50,35,30.06,29.65,7,1,7,0.00
2014-1-2,16.2,7.6,-1.7,7.7,0.8,-7.8,75,73,58,30.03,29.53,57,2,229,0.00